www.pogodaiklimat.ru

Погода и климат >> Архив погоды >> Испания >> La Coruna


АРХИВ ПОГОДЫ в La Coruna

Время (UTC), дата Ветер
(напр.,м/с)
 
Видим.   Явления Облачность Т
(С)
Тd
(С)
f
(%)
Тe
(С)
Тes
(С)
Комфортность P
(гПа)
Po
(гПа)
Тmin
(С)
Tmax
(С)
R
(мм)
R24
(мм)
S
(см)
17 10.12 ЮВ 2 16 км н/о +13.7 +8.5 71 +14 +14 тепло 1025.7 1017.6
16 10.12 В 2 12 км н/о +14.2 +8.4 68 +14 +14 тепло 1025.9 1017.8
18 10.12 ЮВ 2 20 км н/о +13.9 +6.0 59 +14 +14 тепло 1025.3 1017.2 +15.4
19 10.12 ЮВ 3 20 км н/о +13.3 +5.9 61 +12 +12 тепло 1024.8 1016.7
20 10.12 ЮВ 3 20 км н/о +13.0 +6.3 64 +12 +12 тепло 1024.3 1016.2
21 10.12 Ю 4 20 км ясно +12.5 +5.6 63 +11 +11 по сезону 1024.1 1016.0
23 10.12 ЮВ 2 20 км н/о +11.7 +4.4 61 +11 +11 тепло 1023.8 1015.6
22 10.12 ЮВ 3 20 км н/о +12.2 +4.7 60 +11 +11 тепло 1023.8 1015.7
00 11.12 ЮВ 1 20 км ясно +11.0 +4.7 65 +11 +11 по сезону 1023.3 1015.1
01 11.12 Ю 2 20 км н/о +10.5 +3.5 62 +10 +10 тепло 1022.2 1014.0
02 11.12 ЮВ 2 20 км н/о +11.1 +2.4 55 +10 +10 тепло 1021.6 1013.4
03 11.12 ЮВ 3 20 км ясно +11.9 +1.8 50 +11 +11 по сезону 1021.3 1013.2
05 11.12 Ю 2 20 км н/о +11.6 +2.1 52 +11 +11 тепло 1020.7 1012.6
04 11.12 ЮЗ 3 20 км н/о +11.8 +1.7 50 +10 +10 тепло 1021.1 1013.0
06 11.12 Ю 5 20 км ясно +12.7 +0.7 44 +11 +11 по сезону 1020.4 1012.3 +10.5
07 11.12 Ю 4 20 км н/о +13.1 +0.8 43 +12 +12 тепло 1020.5 1012.4
08 11.12 ЮВ 3 20 км н/о +12.4 +1.1 46 +11 +11 тепло 1020.5 1012.4
09 11.12 З 3 25 км 9/0
[Ac As Cs]
+13.1 +4.3 55 +12 +12 по сезону 1021.8 1013.7
11 11.12 З 2 20 км н/о +15.8 +6.8 55 +16 +16 тепло 1022.6 1014.6
10 11.12 З 3 20 км н/о +13.8 +6.9 63 +13 +13 тепло 1022.4 1014.3
12 11.12 Ю 2 20 км 9/1 600 м
[Sc Ac As Cs]
+17.0 +6.8 51 +18 +19 тепло 1021.9 1013.9
13 11.12 ЮЗ 5 20 км н/о +15.7 +10.5 71 +15 +15 тепло 1021.6 1013.6
14 11.12 СЗ 2 19 км н/о +15.1 +12.0 82 +15 +15 тепло 1021.5 1013.5
15 11.12 ЮЗ 4 19 км в посл. час морось н/о +14.6 +11.6 82 +13 +13 по сезону 1022.0 1013.9 0.0
17 11.12 З 5 4400 м слаб. морось н/о +12.7 +11.8 94 +10 +10 по сезону 1023.6 1015.5 1
16 11.12 ЮЗ 3 20 км н/о +15.2 +11.6 79 +15 +15 тепло 1022.1 1014.1
18 11.12 З 4 11 км слаб. морось н/о +12.2 +10.1 87 +10 +10 по сезону 1024.3 1016.2 +17.3 1
19 11.12 З 3 20 км в посл. час морось н/о +12.4 +9.0 80 +11 +11 тепло 1024.5 1016.4 0.0
20 11.12 З 4 20 км н/о +12.2 +8.5 78 +10 +10 по сезону 1024.6 1016.5
21 11.12 СЗ 2 20 км 1/1 300 м
[Cu hum]
+11.7 +8.2 79 +11 +11 по сезону 1024.8 1016.6 0.0
23 11.12 З 2 18 км н/о +10.5 +7.4 81 +9 +9 тепло 1024.6 1016.4
22 11.12 З 2 19 км н/о +11.0 +7.7 80 +10 +10 по сезону 1024.5 1016.3
00 12.12 ЮЗ 1 20 км 1/1 300 м
[Cu hum]
+10.1 +7.5 84 +11 +11 по сезону 1024.5 1016.3
01 12.12 ЮВ 1 19 км н/о +9.6 +7.5 87 +10 +10 тепло 1024.6 1016.4
02 12.12 Ю 2 18 км н/о +9.0 +7.3 89 +8 +8 по сезону 1024.0 1015.8
03 12.12 Ю 1 20 км 1/1 300 м
[St]
+8.8 +6.9 88 +8 +8 по сезону 1024.1 1015.9
05 12.12 ЮВ 1 20 км н/о +8.1 +6.6 90 +7 +7 по сезону 1023.4 1015.1
04 12.12 ЮВ 1 17 км н/о +8.0 +6.5 90 +7 +7 по сезону 1023.8 1015.5
06 12.12 ЮВ 1 20 км 10/10 300 м
[Sc]
+8.2 +6.7 90 +7 +7 по сезону 1022.6 1014.4 +7.9
07 12.12 ЮВ 2 20 км н/о +8.5 +6.6 88 +7 +7 по сезону 1022.1 1013.9
08 12.12 ЮВ 2 20 км н/о +8.8 +6.8 87 +7 +7 по сезону 1021.5 1013.3
09 12.12 Ю 3 18 км 10/1 300 м
[Sc Ac As Cs]
+8.9 +6.7 86 +7 +7 прохладно 1021.1 1012.9
11 12.12 ЮВ 2 20 км н/о +10.5 +8.1 85 +9 +9 по сезону 1020.7 1012.5
10 12.12 Ю 2 18 км н/о +10.1 +7.9 86 +9 +9 по сезону 1021.3 1013.1
12 12.12 ЮВ 3 18 км 10/1 600 м
[Sc Ac As]
+11.3 +8.2 81 +10 +11 по сезону 1019.2 1011.1
13 12.12 Ю 4 20 км н/о +11.7 +8.4 80 +10 +10 по сезону 1017.6 1009.5
14 12.12 Ю 2 20 км н/о +12.4 +8.7 78 +12 +12 тепло 1016.2 1008.1
15 12.12 Ю 5 20 км н/о +13.0 +8.9 76 +11 +11 по сезону 1013.9 1005.9
17 12.12 Ю 6 19 км слаб. дождь н/о +13.7 +8.7 72 +12 +12 тепло 1012.6 1004.6 0.2
16 12.12 Ю 6 20 км н/о +13.6 +8.8 73 +11 +11 по сезону 1013.3 1005.3
18 12.12 Ю 7 20 км в посл. час дождь н/о +13.5 +8.5 72 +11 +11 по сезону 1010.6 1002.6 +13.7 0.2
19 12.12 Ю 6 20 км н/о +13.7 +8.3 70 +12 +12 тепло 1008.8 1000.8
20 12.12 Ю 9 20 км н/о +14.0 +8.6 70 +11 +11 тепло 1007.4 999.4
21 12.12 Ю 8
{21}
15 км слабый дождь 9/4 200 м
[Frnb As op]
+13.6 +8.8 73 +11 +11 по сезону 1006.3 998.3 0.0
23 12.12 Ю 6 19 км слаб. морось н/о +13.4 +10.9 85 +11 +11 тепло 1004.0 996.1 0.2
22 12.12 Ю 5 20 км слаб. морось н/о +13.2 +10.4 83 +11 +11 тепло 1005.2 997.2 0.0
00 13.12 З 9
{21}
12 км в посл. час дождь 8/8 200 м
[Sc]
+13.0 +9.6 80 +10 +10 по сезону 1005.8 997.8 0.6
01 13.12 З 6 14 км слаб. дождь н/о +10.7 +9.3 91 +7 +7 по сезону 1005.7 997.7 0.8
02 13.12 ЮЗ 3 5000 м дождь н/о +10.6 +8.7 88 +9 +9 по сезону 1006.6 998.6 1
03 13.12 ЮЗ 6 14 км в посл. час дождь 8/8 300 м
[Cu Sc]
+10.4 +7.5 82 +7 +7 по сезону 1006.6 998.5 3
05 13.12 З 6 19 км в посл. час дождь н/о +10.8 +7.7 81 +8 +8 тепло 1008.0 999.9 0.2
04 13.12 ЮЗ 5 17 км н/о +10.4 +8.0 85 +7 +7 по сезону 1006.8 998.7 0.2
06 13.12 СЗ 8 12 км в посл. час дождь 6/3 300 м
[Cu Sc As op]
+11.0 +7.3 78 +7 +7 по сезону 1009.2 1001.1 +10.2 0.8
07 13.12 З 7 15 км в посл. час дождь н/о +10.3 +6.4 77 +7 +7 по сезону 1010.1 1002.0 0.4
08 13.12 З 7 15 км н/о +10.8 +7.1 78 +7 +7 по сезону 1011.2 1003.1
09 13.12 СЗ 7 18 км {дождь} 8/4 600 м
[Cu med, cong Ac As Ci sp]
+11.6 +6.9 73 +9 +9 по сезону 1012.3 1004.2 0.4
11 13.12 З 8 15 км в посл. час дождь н/о +12.3 +7.2 71 +9 +9 по сезону 1014.4 1006.3 0.0
10 13.12 СЗ 7 15 км н/о +12.2 +6.9 70 +9 +9 по сезону 1013.4 1005.3
12 13.12 З 9 20 км {дождь} 5/4 600 м
[Cu med, cong Ac As Ci]
+13.3 +6.4 63 +10 +11 по сезону 1014.6 1006.6 0.0
13 13.12 З 8 18 км н/о +13.3 +6.9 65 +11 +11 тепло 1015.3 1007.3
14 13.12 З 6 8000 м слаб. дождь н/о +12.6 +8.7 77 +10 +10 по сезону 1015.9 1007.8 0.4
15 13.12 СЗ 6 15 км в посл. час дождь н/о +11.9 +7.4 74 +9 +9 по сезону 1016.7 1008.6 0.4
17 13.12 СЗ 6 16 км н/о +11.4 +7.1 75 +9 +9 по сезону 1018.1 1010.0 0.4
16 13.12 СЗ 7 14 км н/о +11.9 +7.8 76 +9 +9 по сезону 1017.4 1009.3 0.0
18 13.12 З 6 11 км н/о +11.6 +7.7 77 +9 +9 по сезону 1018.8 1010.7 +13.5 0.6
19 13.12 З 5 15 км н/о +11.2 +7.1 76 +9 +9 по сезону 1019.6 1011.5
20 13.12 СЗ 4 16 км н/о +11.3 +7.0 75 +9 +9 по сезону 1020.0 1011.9
21 13.12 З 3 15 км в посл. час ливневой дождь 5/5 300 м
[Cu Sc]
+10.8 +8.0 83 +9 +9 по сезону 1020.6 1012.4 0.0
23 13.12 З 4 13 км в посл. час дождь н/о +10.4 +7.1 80 +8 +8 по сезону 1021.6 1013.4 0.6
22 13.12 З 5 13 км н/о +11.0 +7.1 77 +8 +8 по сезону 1021.0 1012.8
00 14.12 ЮЗ 3 15 км {дождь} 3/3 300 м
[Cu med, cong]
+10.3 +7.0 80 +8 +8 по сезону 1021.6 1013.4 0.6
01 14.12 ЮЗ 4 16 км н/о +9.8 +7.0 83 +7 +7 по сезону 1021.3 1013.1
02 14.12 ЮЗ 5 14 км н/о +10.0 +7.4 84 +7 +7 по сезону 1022.0 1013.8 0.0
03 14.12 ЮЗ 4 12 км {дождь} 3/3 300 м
[Sc]
+10.1 +7.3 83 +7 +7 по сезону 1022.3 1014.1 0.0
05 14.12 ЮЗ 5 19 км слаб. морось н/о +10.2 +7.3 82 +7 +7 по сезону 1022.4 1014.2 0.0
04 14.12 ЮЗ 4 18 км н/о +10.1 +7.3 83 +8 +8 по сезону 1022.3 1014.1 0.0
06 14.12 ЮЗ 4 15 км {ливн. осадки} 3/3 300 м
[Sc]
+10.4 +7.3 81 +8 +8 по сезону 1022.5 1014.3 +9.7 0.0
07 14.12 ЮЗ 2 16 км н/о +10.7 +7.4 80 +9 +9 по сезону 1022.7 1014.5
08 14.12 ЮЗ 4 19 км н/о +11.0 +7.3 78 +9 +9 по сезону 1023.4 1015.2
09 14.12 ЮЗ 4 18 км слабая морось 10/5 600 м
[Sc As op]
+11.1 +7.8 80 +9 +9 по сезону 1024.2 1016.0 0.0
11 14.12 Ю 3 8000 м слаб. морось с дождем н/о +11.5 +8.5 82 +10 +10 по сезону 1025.0 1016.8 0.0
10 14.12 Ю 3 20 км в посл. час морось н/о +11.1 +7.8 80 +9 +9 по сезону 1024.6 1016.4 0.0
12 14.12 Ю 3 18 км слабая морось 10/3 300 м
[Cu hum As op]
+11.6 +9.2 85 +10 +10 по сезону 1024.1 1015.9 0.2
13 14.12 Ю 4 20 км в посл. час дождь н/о +12.3 +9.1 81 +10 +10 по сезону 1023.0 1014.9 0.0
14 14.12 Ю 4 14 км слаб. морось н/о +12.6 +9.2 80 +11 +11 по сезону 1022.5 1014.4 0.0
15 14.12 Ю 3 17 км слаб. морось {дождь} н/о +12.2 +9.6 84 +11 +11 по сезону 1021.9 1013.8 0.0
17 14.12 Ю 4 20 км н/о +12.7 +9.7 82 +11 +11 тепло 1021.5 1013.4
16 14.12 Ю 4 20 км н/о +12.5 +9.7 83 +11 +11 по сезону 1021.7 1013.6
18 14.12 Ю 4 20 км н/о +13.0 +10.0 82 +11 +11 по сезону 1021.5 1013.4 +13.0
19 14.12 Ю 4 20 км н/о +13.2 +10.4 83 +11 +11 тепло 1021.3 1013.2 0.2
20 14.12 Ю 4 20 км н/о +13.7 +10.7 82 +12 +12 тепло 1021.1 1013.0
21 14.12 Ю 4 18 км {дождь} 6/5 300 м
[Sc Ac As]
+13.9 +11.1 83 +13 +13 тепло 1020.4 1012.3 0.2
23 14.12 Ю 7 20 км в посл. час морось н/о +14.3 +11.3 82 +12 +12 тепло 1020.4 1012.4 0.0
22 14.12 Ю 7 16 км в посл. час дождь н/о +14.1 +11.4 84 +12 +12 тепло 1020.4 1012.3 0.2
00 15.12 Ю 5 18 км слабый дождь 10/8 300 м
[Sc Ac As]
+14.2 +11.5 84 +12 +12 тепло 1019.9 1011.9 0.6
01 15.12 Ю 6 20 км в посл. час дождь н/о +14.5 +11.6 83 +13 +13 тепло 1019.0 1011.0 0.6
02 15.12 Ю 7 20 км н/о +14.5 +11.5 82 +12 +12 тепло 1018.7 1010.7
03 15.12 Ю 6 18 км {дождь} 8/4 300 м
[Sc Ac lent Ci sp]
+14.6 +11.6 82 +13 +13 тепло 1018.6 1010.6 0.6
05 15.12 Ю 6 20 км н/о +14.8 +11.9 83 +13 +13 тепло 1017.9 1009.9
04 15.12 Ю 6 20 км в посл. час дождь н/о +14.7 +11.7 82 +13 +13 тепло 1017.8 1009.8 0.2
06 15.12 Ю 6 18 км {дождь} 4/1 600 м
[Sc Ac lent Ci fib]
+14.7 +12.0 84 +13 +13 тепло 1017.7 1009.7 +13.0 0.2
07 15.12 Ю 4 20 км н/о +15.2 +12.3 83 +14 +14 тепло 1017.4 1009.4
08 15.12 Ю 5 20 км н/о +15.3 +12.2 82 +14 +14 тепло 1016.9 1008.9
09 15.12 Ю 6 22 км 6/4 300 м
[Cu Sc Cc]
+15.7 +12.4 81 +14 +14 тепло 1017.0 1009.0
11 15.12 Ю 6 20 км н/о +16.9 +12.6 76 +16 +16 тепло 1017.0 1009.1 0.0
10 15.12 Ю 7 20 км н/о +16.4 +12.4 77 +15 +15 тепло 1017.4 1009.4
12 15.12 Ю 6 18 км слабый дождь 10/6 300 м
[Cu Sc Ac As]
+17.2 +12.9 76 +16 +16 тепло 1015.2 1007.3 0.0
13 15.12 ЮЗ 8 15 км слаб. морось н/о +16.0 +12.9 82 +14 +14 тепло 1014.7 1006.7 1
14 15.12 ЮЗ 7 н/о морось с дождем н/о +15.8 +13.3 85 +14 +14 тепло 1015.3 1007.3 1
15 15.12 З 5 1400 м сильн. дождь н/о +15.0 +13.9 93 +14 +14 тепло 1016.4 1008.4 6
17 15.12 З 5 8000 м в посл. час дождь н/о +14.0 +12.7 92 +12 +12 тепло 1017.3 1009.3 0.6
16 15.12 З 6 15 км в посл. час дождь н/о +14.3 +13.0 92 +12 +12 тепло 1017.1 1009.1 5
18 15.12 З 5 11 км в посл. час морось {дождь} н/о +13.4 +11.3 87 +11 +11 по сезону 1018.5 1010.4 +17.8 5
19 15.12 З 4 12 км н/о +13.2 +10.9 86 +11 +11 тепло 1019.1 1011.0
20 15.12 ЮЗ 3 13 км н/о +12.8 +9.8 82 +11 +11 тепло 1019.3 1011.2
21 15.12 ЮЗ 3 15 км 10/1 300 м
[Cu hum Cs]
+12.4 +9.8 84 +11 +11 по сезону 1018.9 1010.8
23 15.12 ЮЗ 3 15 км н/о +12.2 +9.8 85 +11 +11 тепло 1018.6 1010.5
22 15.12 ЮЗ 3 15 км н/о +12.3 +9.8 85 +11 +11 тепло 1018.7 1010.6
00 16.12 ЮЗ 4 15 км 10/4 300 м
[Cu hum As op]
+12.0 +9.4 84 +10 +10 по сезону 1018.1 1010.0
01 16.12 ЮЗ 3 19 км н/о +11.8 +9.0 83 +10 +10 тепло 1017.4 1009.3
02 16.12 Ю 1 17 км н/о +11.7 +8.5 81 +12 +12 тепло 1017.1 1009.0
03 16.12 Ю 3 15 км ясно +11.2 +8.2 82 +10 +10 по сезону 1016.7 1008.6
05 16.12 Ю 3 20 км н/о +10.5 +7.7 83 +9 +9 тепло 1015.8 1007.7
04 16.12 Ю 3 19 км н/о +10.8 +8.0 83 +9 +9 по сезону 1016.3 1008.2
06 16.12 Ю 3 20 км ясно +10.5 +7.4 81 +9 +9 по сезону 1015.2 1007.1 +10.2
07 16.12 Ю 3 20 км н/о +10.1 +7.2 82 +8 +8 по сезону 1014.8 1006.7
08 16.12 ЮЗ 5 8000 м дождь н/о +10.8 +8.0 83 +8 +8 по сезону 1014.6 1006.5 1
09 16.12 ЮЗ 7 20 км слабый дождь 10/9 300 м
[Frnb As op]
+10.6 +8.4 86 +7 +7 прохладно 1015.5 1007.4 3
11 16.12 ЮЗ 7 15 км слаб. дождь н/о +10.7 +8.1 84 +7 +7 по сезону 1017.8 1009.7 1
10 16.12 ЮЗ 6 н/о н/о +11.0 +7.7 80 +8 +8 по сезону 1016.6 1008.5 0.0
12 16.12 З 6 15 км в посл. час ливневой дождь 9/6 600 м
[Cu Sc Ac As Ci fib]
+11.4 +7.3 76 +8 +9 прохладно 1019.0 1010.9 1
13 16.12 З 6 19 км н/о +12.2 +7.5 73 +10 +10 по сезону 1019.5 1011.4
14 16.12 З 5 14 км слаб. морось н/о +10.9 +8.1 83 +8 +8 по сезону 1020.0 1011.9 1
15 16.12 ЮЗ 3 17 км слаб. морось {дождь} н/о +11.7 +7.8 77 +10 +10 по сезону 1020.5 1012.4 1
17 16.12 ЮЗ 5 20 км н/о +11.8 +7.1 73 +9 +9 по сезону 1022.6 1014.5
16 16.12 ЮЗ 6 20 км н/о +12.2 +7.3 72 +10 +10 по сезону 1021.4 1013.3
18 16.12 ЮЗ 5 20 км в посл. час дождь н/о +10.9 +6.8 76 +8 +8 прохладно 1023.4 1015.2 +12.4 0.4
19 16.12 ЮЗ 4 19 км н/о +10.5 +6.8 78 +8 +8 по сезону 1024.1 1015.9
20 16.12 ЮЗ 5 19 км в посл. час дождь н/о +10.6 +6.5 76 +8 +8 по сезону 1024.7 1016.5 0.2
21 16.12 ЮЗ 5 15 км в посл. час ливневой дождь ясно +10.6 +6.3 75 +8 +8 по сезону 1024.9 1016.7 0.2
23 16.12 ЮЗ 5 17 км н/о +10.6 +6.5 76 +8 +8 тепло 1025.8 1017.6
22 16.12 ЮЗ 5 20 км н/о +10.6 +6.3 75 +8 +8 по сезону 1025.8 1017.6
00 17.12 ЮЗ 5 15 км {ливн. осадки} ясно +10.7 +6.4 75 +8 +8 по сезону 1025.9 1017.7
01 17.12 ЮЗ 3 19 км н/о +10.7 +7.0 78 +9 +9 тепло 1025.2 1017.0
02 17.12 ЮЗ 4 19 км н/о +11.0 +7.3 78 +9 +9 по сезону 1025.7 1017.5
03 17.12 Ю 2 15 км ясно +10.7 +7.4 80 +9 +9 по сезону 1026.0 1017.8
05 17.12 Ю 4 20 км н/о +10.3 +7.9 85 +8 +8 тепло 1025.3 1017.1
04 17.12 Ю 3 20 км н/о +10.0 +7.4 84 +8 +8 по сезону 1025.8 1017.6
06 17.12 Ю 4 15 км ясно +10.5 +7.7 83 +8 +8 по сезону 1025.5 1017.3 +10.0
07 17.12 Ю 3 20 км н/о +10.5 +7.9 84 +8 +8 по сезону 1025.4 1017.2
08 17.12 Ю 3 20 км н/о +10.7 +7.9 83 +9 +9 по сезону 1025.6 1017.4
09 17.12 Ю 5 22 км 9/6 300 м
[Sc As trans]
+11.0 +8.0 82 +8 +8 по сезону 1026.0 1017.8
11 17.12 Ю 5 20 км н/о +12.0 +8.5 79 +10 +10 по сезону 1025.6 1017.4
10 17.12 Ю 5 20 км н/о +11.6 +8.4 81 +9 +9 по сезону 1025.7 1017.5
12 17.12 Ю 5 22 км 10/3 300 м
[Sc As trans]
+12.5 +8.4 76 +10 +11 по сезону 1024.6 1016.5
13 17.12 Ю 5 20 км н/о +12.7 +8.6 76 +11 +11 тепло 1024.2 1016.1
14 17.12 Ю 4 20 км н/о +13.0 +8.5 74 +11 +11 по сезону 1023.4 1015.3
15 17.12 Ю 6 20 км н/о +12.9 +8.0 72 +11 +11 по сезону 1022.2 1014.1
16 17.12 Ю 4 20 км н/о +12.8 +7.5 70 +11 +11 тепло 1022.1 1014.0

 

Местоположение метеостанции La Coruna (Испания): широта 43.37 долгота -8.42 высота над уровнем моря 67 м.

В архиве по умолчанию представлена погода в La Coruna за последнюю неделю. Архивные данные за месяц целиком и за предыдущие месяцы, начиная с января 2011 года, Вы можете получить, выбрав интересующий диапазон дат из раскрывающегося списка и нажав кнопку "Ввод!".


*Определитесь, кто Вы:
робот инопланетянин человек

Внимание! Время в таблицах - всемирное. Для получения местного времени необходимо прибавить поправку, которая в La Coruna равна 1 ч.

Смотрите также архив погоды в соседних городах и на ближайших метеорологических станциях:

Погода в Santiago (Испания) (52 км)
Погода в Lugo (Испания) (83 км)
Погода в Pontevedra (Испания) (106 км)
Погода в Orense (Испания) (124 км)
Погода в Vigo (Испания) (128 км)
Погода в Ponferrada (Испания) (177 км)
Погода в Aviles (Испания) (194 км)
Погода в Viana Do Castelo (Португалия) (196 км)
Погода в Oviedo (Испания) (206 км)
Погода в Gijon Musel (Испания) (221 км)

Пояснения к столбцам:

Ветер - указаны скорость ветра в м/с - средняя за 10 мин, порывы в срок и между сроками (в фигурных скобках) и направление, откуда дует ветер: С - северный, СВ - северо-восточный, В - восточный, ЮВ - юго-восточный, Ю - южный, ЮЗ - юго-западный, З - западный, СЗ - северо-западный.
Видимость - горизонтальная дальность видимости в метрах или километрах. При видимости от 1 до 10 км при отсутствии осадков обычно наблюдается дымка, при ухудшении видимости до 1 км и менее - туман. В сухую погоду видимость может ухудшаться дымом, пылью или мглою.
Явления - указаны атмосферные явления, наблюдавшиеся в срок или в последний час перед сроком; фигурными скобками обозначены явления, наблюдавшиеся между сроками (за 1-3 часа до срока); квадратными скобками обозначены град или гололедные отложения с указанием их диаметра в мм.
Облачность - указаны через наклонную черту общая и нижняя облачность в баллах и высота нижней границы облаков в метрах; квадратными скобками обозначены формы облаков: Ci - перистые, Cs - перисто-слоистые, Cc - перисто-кучевые, Ac - высококучевые, As - высокослоистые, Sc - слоисто-кучевые, Ns - слоисто-дождевые, Cu - кучевые, Cb - кучево-дождевые. Подробнее классификацию облаков см. в Атласе облаков (PDF).
T - Температура воздуха - температура, измеренная на высоте 2 м над землей.
Td - Температура точки росы - температура, при понижении до которой содержащийся в воздухе водяной пар достигнет насыщения.
f - Относительная влажность воздуха - влажноcть воздуха, измеренная на высоте 2 м над землей.
Te - Эффективная температура - температура, которую ощущает одетый по сезону человек в тени. Характеристика душности погоды. При расчете учитывается влияние влажности воздуха и скорости ветра на теплоощущения человека.
Tes - Эффективная температура на солнце - температура, которую ощущает человек, с поправкой на солнечный нагрев. Характеристика знойности погоды. Зависит от высоты солнца над горизонтом, облачности и скорости ветра. Ночью, в пасмурную погоду, а также при ветре 12 м/с и более поправка равна нулю.
P - Атмосферное давление - приведенное к уровню моря атмосферное давление.
Po - Атмосферное давление - измеренное на уровне метеостанции атмосферное давление.
Tmin - Минимальная температура - минимум температуры воздуха на высоте 2 м над землей.
Tmax - Максимальная температура - максимум температуры воздуха на высоте 2 м над землей.
R - Количество осадков - Количество выпавших осадков за период времени, мм. При наведении курсора мыши на число - период времени, за который выпало указанное количество осадков.
R24 - Количество осадков - Количество выпавших осадков за 24 часа, мм.
S - Снежный покров - Высота снежного покрова, см. При наведении курсора мыши на число - состояние снежного покрова и степень покрытия местности в баллах.